Lapse_Rate
5.9 6.5 6.5 6.5 6.5 6.5 6.5 6.5 6.5 6.5 6.5 6.5 6.5 6.5 6.5 6.0 5.2 6.1 5.9 5.9 5.9 5.4 3.8 2.2 1.9 0.5 -1.0 -2.5 -3.0 -4.2 -4.4 -6.0 -5.8 -5.1 -4.5 -4.9 -3.7 -3.5 -3.2 -1.7 -0.0 0.5 0.9 1.0
6.5 6.5 6.5 6.5 6.5 6.5 6.5 6.5 6.5 6.5 6.5 6.5 6.5 6.5 6.5 6.5 6.4 5.2 5.9 5.8 5.3 4.1 2.4 3.0 2.5 -0.2 -1.4 -1.7 -2.8 -3.6 -4.5 -5.7 -5.2 -4.5 -5.1 -4.8 -4.6 -3.8 -2.1 -0.3 0.6 1.1 1.5 1.5
6.5 6.5 6.5 6.5 6.5 6.5 6.5 6.5 6.5 6.5 6.5 6.5 6.5 6.5 6.5 6.5 5.9 5.0 5.0 4.7 4.0 4.2 3.1 2.9 1.9 0.5 -0.7 -2.0 -2.4 -3.2 -4.2 -5.1 -4.7 -4.5 -4.8 -4.5 -3.4 -1.8 -1.0 -0.8 0.1 1.3 2.0 2.2
6.5 6.5 6.5 6.5 6.5 6.5 6.5 6.5 6.5 6.5 6.5 6.5 6.5 6.5 6.5 6.5 6.5 6.5 6.1 5.9 5.7 3.2 2.7 2.3 1.1 0.3 -0.3 -1.1 -3.3 -4.1 -4.8 -4.6 -4.3 -4.5 -3.2 -1.7 -1.6 -0.9 -1.1 -0.4 0.8 1.4 2.2 2.3
6.5 6.5 6.5 6.5 6.5 6.5 6.5 6.5 6.5 6.5 6.5 6.5 6.5 6.5 6.5 6.5 6.5 6.5 6.5 6.0 5.7 3.2 2.9 1.0 0.3 0.4 -1.0 -2.3 -3.9 -4.4 -3.8 -3.6 -3.6 -3.3 -1.0 -1.1 -0.5 -0.2 -0.2 1.2 1.9 2.1 2.0 2.4
6.5 6.4 6.5 6.5 6.5 6.5 6.5 6.5 6.5 6.5 6.5 6.5 6.5 6.5 6.5 6.5 6.5 6.5 6.5 5.4 4.1 2.5 1.4 0.6 -0.2 -0.8 -1.9 -3.5 -4.1 -3.5 -2.5 -2.9 -2.3 -1.4 -0.5 0.4 0.8 0.4 1.4 1.5 1.7 1.6 1.5 1.8
6.5 6.5 6.5 6.5 6.5 6.5 6.5 6.5 6.5 6.5 6.5 6.5 6.5 6.5 6.5 6.5 6.5 6.5 6.5 5.0 2.6 1.7 1.1 0.1 -0.0 -0.9 -2.4 -3.6 -3.4 -1.8 -1.2 -1.8 -1.0 -0.2 0.8 1.4 1.2 1.6 2.0 1.7 1.3 1.5 1.5 1.9
6.5 6.5 6.5 6.5 6.5 6.5 6.5 6.5 6.5 6.5 6.5 6.5 6.5 6.5 6.5 6.5 6.5 6.1 5.5 3.6 3.2 1.9 0.1 -0.3 -0.6 -1.7 -2.8 -2.6 -1.7 -0.4 -0.1 -0.6 -0.1 0.8 1.0 1.0 1.2 1.4 1.2 1.3 1.4 1.7 2.1 2.5
6.5 6.5 6.5 6.5 6.5 6.5 6.5 6.5 6.5 6.5 6.5 6.5 6.5 6.5 6.5 6.5 6.5 6.5 6.3 4.8 2.5 1.2 0.2 0.1 -0.7 -2.9 -3.2 -1.8 -0.6 0.4 0.6 0.3 0.7 1.0 0.6 1.0 1.3 1.6 1.7 1.6 1.8 1.9 2.0 2.5
6.5 6.5 6.5 6.5 6.5 6.5 6.5 6.5 6.5 6.5 6.5 6.5 6.5 6.5 6.5 6.5 6.5 6.5 6.5 6.2 2.9 1.8 0.9 0.0 -1.0 -1.3 -1.1 -0.1 0.5 0.9 1.1 1.0 1.0 1.4 1.9 2.0 2.0 2.1 2.0 2.0 2.4 2.3 2.3 2.6
6.5 6.5 6.5 6.5 6.5 6.5 6.5 6.5 6.5 6.5 6.5 6.5 6.5 6.5 6.5 6.5 6.5 6.5 6.5 4.8 3.1 2.3 0.2 1.6 2.6 1.7 1.0 1.3 1.4 1.3 1.8 1.9 2.1 2.4 2.2 2.1 2.2 2.5 2.5 2.6 2.5 2.6 2.7 2.8
6.5 6.5 6.5 6.5 6.5 6.5 6.5 6.5 6.5 6.5 6.5 6.5 6.5 6.5 6.5 6.5 6.5 6.5 6.4 5.4 5.0 2.2 2.4 4.3 5.5 3.3 2.9 2.2 2.3 2.3 2.6 2.8 2.7 2.6 2.5 2.4 2.3 2.5 2.6 2.8 2.8 2.8 3.2 3.3
6.5 6.5 6.5 6.5 6.5 6.5 6.5 6.5 6.5 6.5 6.5 6.5 6.5 6.5 6.5 6.5 6.5 5.9 5.8 5.0 4.4 3.9 3.2 5.5 4.6 4.6 3.6 2.9 3.2 3.0 3.5 3.3 2.9 2.9 2.3 2.2 2.6 2.7 3.0 3.1 2.9 3.1 3.3 3.4
6.2 6.5 6.5 6.5 6.5 6.5 6.5 6.5 6.5 6.5 6.5 6.5 6.5 6.5 6.5 6.5 6.5 6.5 6.1 4.9 3.5 3.7 4.1 4.8 5.3 4.8 3.9 3.6 3.6 4.0 3.4 3.5 3.2 3.0 2.7 2.8 2.7 2.9 2.9 3.2 3.1 3.4 3.5 3.7
6.5 6.5 6.5 6.5 6.5 6.5 6.5 6.5 6.5 6.5 6.5 6.5 6.5 6.5 6.5 6.5 6.5 6.5 5.9 5.8 5.1 4.5 4.3 4.1 4.3 4.2 4.1 3.9 4.0 4.3 3.9 3.6 2.9 3.3 3.2 2.9 2.7 3.0 3.2 3.5 3.6 3.8 3.7 4.1
6.5 6.5 6.5 6.5 6.5 6.5 6.5 6.5 6.5 6.5 6.5 6.5 6.5 6.5 6.5 6.4 6.3 6.2 5.9 5.7 5.5 5.6 5.6 4.5 4.6 4.2 4.2 4.6 4.4 4.5 4.0 3.4 3.2 3.3 3.1 2.9 2.9 3.3 3.5 3.6 3.6 3.7 4.0 4.1
6.5 6.5 6.5 6.5 6.5 6.5 6.5 6.5 6.5 6.5 6.5 6.5 6.5 6.5 6.5 6.5 6.5 6.4 5.0 5.0 5.2 4.6 5.8 5.4 5.0 4.3 4.4 4.8 4.4 3.8 3.7 3.0 3.4 3.5 3.5 3.5 3.2 3.5 3.5 3.8 3.8 3.6 3.2 3.1
6.5 6.5 6.5 6.5 6.5 6.5 6.5 6.5 6.5 6.5 6.5 6.5 6.5 6.5 6.5 6.5 5.5 5.6 5.4 5.6 4.5 4.3 5.3 5.9 4.9 4.5 4.2 4.5 4.2 2.8 3.1 3.7 3.9 3.9 4.0 3.7 3.7 3.5 3.2 3.6 3.6 3.0 2.7 2.7
6.5 6.5 6.5 6.5 6.5 6.5 6.5 6.5 6.5 6.5 6.5 6.5 6.5 6.5 6.5 6.7 6.7 6.4 5.6 5.0 3.8 3.9 4.8 5.4 5.0 4.0 3.8 3.8 3.6 3.4 3.5 3.7 4.0 4.0 3.9 3.8 3.8 3.4 3.4 3.6 3.1 2.9 2.9 2.9
6.5 6.5 6.5 6.5 6.5 6.5 6.5 6.5 6.8 6.5 6.5 6.5 6.5 6.5 6.5 6.7 6.5 6.5 4.4 4.5 3.7 3.6 4.7 5.2 4.4 3.8 3.5 3.5 3.6 3.4 3.2 3.6 4.0 3.9 4.0 3.7 3.8 3.8 3.7 3.2 2.9 3.1 3.7 3.5
6.5 6.5 6.5 6.5 6.5 6.5 6.5 6.5 6.8 6.5 6.5 6.6 6.8 6.7 6.7 6.5 6.6 5.6 4.5 3.6 3.7 4.0 4.5 4.8 4.0 3.3 3.3 2.4 3.3 3.6 3.0 3.7 3.9 3.9 3.5 3.3 3.5 3.8 3.5 2.9 3.0 3.3 3.9 3.5
6.5 6.5 6.5 6.5 6.5 6.5 6.6 6.6 6.5 6.5 6.9 7.0 7.0 7.0 6.9 7.2 6.4 5.0 5.0 3.5 4.1 4.5 4.5 5.2 3.9 3.3 2.1 2.8 3.5 2.9 3.3 3.4 3.2 3.4 3.4 2.9 2.8 4.3 3.5 3.4 2.9 3.2 4.1 3.7
6.5 6.5 6.5 6.5 6.5 6.5 6.9 6.6 6.2 6.8 7.0 7.0 7.0 7.2 6.9 7.0 5.6 5.9 5.1 3.7 3.2 3.6 4.0 4.5 3.8 2.2 1.9 2.8 3.3 2.9 3.2 2.7 3.1 3.1 2.8 2.6 2.7 3.1 3.1 3.0 3.5 3.3 3.7 3.9
6.5 6.5 6.5 6.5 6.5 6.5 6.7 6.9 7.0 7.2 7.0 7.2 7.3 6.9 6.9 7.0 6.3 5.8 4.8 2.9 3.3 3.2 3.4 4.4 3.1 3.0 1.7 2.6 2.8 3.4 1.7 3.0 3.2 2.7 2.4 2.4 2.8 2.4 2.8 3.5 4.1 4.2 4.2 4.9
6.4 6.5 6.5 6.5 6.5 6.6 6.8 6.9 7.1 7.3 7.4 7.2 6.5 6.8 6.9 6.3 5.6 6.1 4.4 3.1 3.6 4.6 4.0 3.4 3.8 3.4 2.1 2.5 2.3 1.8 2.3 3.0 2.7 2.5 2.3 2.6 2.3 2.4 2.4 3.3 2.6 3.8 4.0 4.8
6.1 6.5 6.5 6.5 6.5 6.6 6.7 7.1 7.0 7.0 7.1 6.9 6.7 6.4 5.5 5.6 6.6 5.5 4.1 4.0 3.5 3.5 1.2 1.9 3.8 2.9 2.5 2.8 2.4 1.9 2.6 3.0 2.5 2.3 2.4 2.5 2.6 2.3 2.6 1.8 1.0 -4.1 -2.1 0.9
Wind_Speed
5 5 16 30 26 8 3 11 2 3 5 8 19 22 16 9 11 17 18 20 21 21 15 9 10 10 10 10 10 9 7 7 8 4 4 3 4 5 4 5 7 10 9 10
5 15 10 2 5 5 2 3 1 4 4 2 6 11 9 6 10 11 16 17 16 15 8 11 13 10 9 10 11 8 6 6 7 5 3 3 4 3 3 4 6 7 9 10
6 7 8 8 5 8 5 5 3 2 7 6 5 14 10 7 11 13 16 13 11 13 10 13 13 11 9 9 10 8 5 8 8 8 6 4 5 4 3 2 2 5 8 8
6 6 4 2 6 6 5 7 5 6 5 6 2 12 13 9 15 13 18 18 17 9 13 15 9 12 11 11 5 5 6 8 9 10 7 11 4 5 3 3 3 4 5 5
7 1 4 5 5 7 7 2 4 2 3 3 2 4 6 5 11 17 19 21 19 13 16 13 12 12 10 5 6 6 7 7 8 8 9 7 6 3 3 3 6 4 3 5
5 1 2 5 4 7 4 6 2 2 3 4 6 6 18 9 16 13 14 15 11 10 10 11 10 8 7 2 4 5 7 6 7 8 8 10 10 8 6 4 4 3 2 3
1 6 4 4 2 1 2 5 2 2 3 11 13 9 21 5 3 3 6 7 8 9 9 9 9 7 5 6 6 6 7 8 7 8 8 8 9 9 9 7 5 6 3 2
5 3 5 4 8 6 6 7 5 6 4 4 8 11 9 14 24 22 13 8 7 9 9 10 10 8 6 7 8 8 9 9 8 8 7 7 8 5 4 5 5 4 3 3
5 3 5 6 2 8 4 4 5 3 2 1 4 7 11 14 19 11 5 6 9 10 10 11 8 7 9 9 9 10 10 7 7 7 7 7 6 7 7 6 5 3 4 3
4 3 4 4 3 4 4 5 3 2 4 4 5 6 8 8 8 14 8 8 10 11 11 10 5 9 8 10 9 9 10 10 8 7 7 7 7 6 6 5 5 5 4 4
5 3 6 2 3 3 3 2 2 4 5 4 2 5 7 14 2 5 6 8 10 10 8 3 6 10 9 10 11 10 10 11 9 7 6 8 6 6 5 5 5 5 5 5
3 1 3 6 6 3 1 3 1 4 7 7 3 7 2 6 5 5 8 13 13 5 4 3 6 10 10 11 11 11 10 11 8 7 7 7 6 6 5 5 5 5 5 4
1 2 2 6 1 3 2 2 4 1 0 7 7 7 3 7 13 8 10 14 11 4 3 4 7 9 9 10 10 10 10 9 8 8 7 6 6 6 5 5 5 5 5 5
4 3 5 5 3 2 2 6 7 4 4 7 20 15 19 21 20 15 17 14 9 5 4 6 7 8 7 10 11 10 8 8 7 7 7 6 6 5 5 5 5 5 5 5
4 5 6 10 13 11 9 12 12 13 13 9 17 15 7 18 16 15 12 14 10 6 6 7 8 6 7 9 10 9 9 8 7 7 6 6 5 5 5 5 5 4 5 4
3 3 2 10 12 11 13 14 15 18 19 21 19 21 10 18 17 13 13 11 12 11 11 10 10 10 10 10 11 10 9 8 8 7 6 5 5 5 5 5 5 4 4 4
3 2 1 5 5 7 8 18 17 20 21 17 21 11 8 15 16 14 12 10 13 14 11 13 14 13 11 11 11 11 9 7 7 7 7 6 6 6 5 5 5 4 5 5
5 5 2 4 2 5 6 1 6 15 21 20 14 8 11 14 8 16 16 15 12 12 12 13 13 12 11 9 9 8 8 8 8 7 7 6 6 6 6 5 5 5 4 5
15 6 2 3 3 9 6 6 6 6 6 8 5 6 6 10 13 22 17 14 10 9 11 11 11 11 10 10 10 10 8 8 8 8 8 8 7 7 6 6 5 4 4 4
13 12 6 3 5 4 3 5 10 9 7 6 6 6 9 11 7 9 4 5 8 9 10 11 12 11 11 9 10 11 9 9 9 8 8 7 7 7 7 6 6 3 3 4
2 2 12 10 5 2 2 11 9 6 3 13 7 9 10 9 8 16 19 12 5 6 13 12 14 13 12 10 11 10 9 10 9 8 7 7 7 7 6 5 3 4 5 5
3 3 2 2 5 2 4 7 3 7 14 15 10 8 11 13 14 15 14 9 6 7 9 13 12 11 10 11 12 10 11 8 8 8 8 8 7 6 6 6 4 5 6 6
3 1 4 2 3 10 11 9 11 13 16 7 11 12 11 14 13 15 9 6 5 5 7 8 10 9 9 11 11 12 9 9 9 8 8 7 7 6 6 7 7 5 5 6
4 1 3 6 3 8 5 6 9 10 13 11 11 15 14 15 14 11 7 4 5 7 9 9 11 9 9 9 10 10 10 9 10 9 8 7 7 6 6 6 5 5 5 4
4 5 5 6 8 16 4 12 10 12 12 13 16 14 15 14 13 8 5 3 1 10 9 10 11 11 12 11 9 9 11 11 9 8 8 7 6 6 7 5 3 4 3 4
2 3 3 6 13 11 14 14 13 12 12 14 18 20 20 12 10 7 4 4 3 4 10 10 8 9 10 12 11 10 11 12 11 8 7 7 6 6 6 6 3 8 4 6
Wind_Direction
250 195 205 205 211 203 60 213 138 148 261 186 225 256 257 251 262 268 271 272 275 278 284 269 270 273 279 279 276 251 205 174 142 134 142 129 177 159 156 175 182 180 176 171
256 232 223 161 192 203 116 112 208 285 255 183 282 276 277 243 255 246 253 257 257 269 279 278 274 268 266 265 274 268 218 168 164 151 141 138 138 167 159 169 182 178 173 177
243 275 183 199 174 205 222 206 177 191 323 281 294 286 267 242 234 248 256 253 250 254 254 261 262 266 273 263 266 265 197 170 159 139 117 92 84 75 98 141 150 187 181 173
230 260 160 26 221 154 189 172 169 195 175 247 110 282 264 264 263 254 260 260 258 226 243 251 257 272 269 271 244 201 161 153 151 142 136 150 142 153 165 145 144 147 152 153
239 277 180 173 188 189 222 146 164 186 249 294 205 295 287 217 259 255 254 256 255 227 236 245 244 251 271 264 221 182 152 140 144 133 146 134 110 105 105 109 128 121 133 151
229 312 198 172 193 191 158 141 118 85 122 260 175 181 275 251 252 252 249 263 249 242 243 247 257 262 269 215 164 146 137 125 135 132 138 132 130 127 121 120 125 125 119 125
346 252 218 154 228 43 91 78 96 124 192 233 161 179 240 306 184 239 246 289 277 265 272 268 262 246 231 186 151 137 137 129 132 129 127 131 134 137 145 148 145 146 137 137
176 258 179 192 184 189 173 166 167 173 201 216 151 222 241 235 254 261 276 291 309 297 264 257 249 226 192 163 149 134 134 125 126 124 131 130 130 134 129 136 139 136 150 148
351 306 332 53 49 151 183 161 195 44 277 111 218 287 293 276 282 269 302 338 295 282 282 271 243 183 156 151 144 136 129 115 117 122 122 119 122 125 132 128 121 135 124 144
315 275 114 317 2 260 166 172 119 356 219 240 260 259 236 318 264 275 353 324 308 307 296 280 185 147 141 137 130 123 130 132 128 122 124 128 125 124 124 124 136 135 139 136
15 59 306 3 200 210 36 288 166 164 177 212 296 264 220 224 172 16 299 296 298 303 316 44 133 139 134 129 129 125 125 126 126 126 122 123 125 125 122 133 136 145 137 145
351 78 269 258 266 334 92 267 268 178 241 248 138 270 357 107 85 33 354 337 335 340 355 94 140 141 136 134 130 130 132 135 137 134 126 126 124 126 131 137 145 143 141 151
282 275 307 319 22 64 115 249 228 259 48 237 235 239 239 324 336 359 347 334 335 344 80 133 137 149 143 136 135 133 140 135 134 132 125 129 139 141 143 145 143 146 148 152
226 232 213 205 311 118 269 292 289 216 229 263 243 267 292 303 309 333 331 319 322 286 208 158 150 153 146 143 141 140 131 135 138 133 134 146 159 153 148 148 146 153 153 142
183 258 235 256 267 279 261 266 264 260 255 250 269 268 283 296 307 306 302 300 315 279 221 177 161 156 153 151 143 146 140 144 143 138 148 158 152 140 140 140 147 150 147 159
199 243 260 287 262 257 264 262 258 255 256 259 261 268 268 273 286 288 291 289 299 311 218 188 165 158 165 169 151 154 150 151 144 145 150 144 144 150 146 140 146 147 131 141
207 247 312 265 298 341 286 241 242 244 238 240 240 242 263 265 275 275 271 284 291 299 209 186 176 169 169 172 158 158 158 142 146 145 149 158 159 148 146 133 129 135 132 133
206 175 193 280 332 249 248 182 302 259 243 228 252 224 234 256 288 284 273 273 275 275 199 185 173 170 163 160 155 138 144 150 150 154 154 154 154 148 130 128 137 115 118 129
213 202 231 240 217 279 320 11 6 341 306 244 228 248 293 308 307 276 258 241 243 224 193 181 166 158 148 159 156 145 148 150 151 160 166 166 157 143 140 145 137 126 136 132
203 211 201 192 236 253 63 337 323 305 261 38 347 322 318 310 258 266 277 210 262 190 169 162 155 149 148 159 153 148 156 156 166 168 177 157 149 149 159 151 144 131 145 129
93 200 228 239 261 261 358 321 314 226 353 319 335 321 294 284 265 300 294 279 252 204 164 152 148 156 161 153 154 158 155 175 179 162 148 145 147 153 153 141 126 135 132 126
314 298 272 249 237 313 326 331 299 308 291 297 327 314 306 287 299 289 279 247 245 156 144 157 155 153 146 157 158 158 173 175 147 151 147 144 144 149 148 142 123 129 130 129
299 170 297 210 272 269 294 218 241 271 304 307 319 309 303 309 303 296 280 266 222 161 136 149 146 142 149 162 163 165 180 149 143 146 147 140 135 139 146 139 143 130 134 153
277 222 263 303 264 316 339 315 256 303 297 305 309 317 320 305 297 293 281 293 176 178 153 147 128 155 155 167 168 173 150 150 149 149 144 140 145 143 135 138 150 155 159 148
236 330 295 273 293 323 273 324 326 322 322 330 326 318 299 297 301 286 286 9 208 178 156 145 160 172 174 167 155 148 153 149 152 149 145 148 143 147 143 133 136 162 164 176
224 266 328 315 315 312 301 316 328 321 340 332 322 313 311 298 279 276 12 9 56 137 136 149 180 164 170 169 160 152 157 157 148 147 151 160 154 148 152 145 120 51 24 173